User: anonymous   Login
Location: ?????
(54.9266°N, 38.5527°E)
Time: 15:45:47
(UTC+00:00)
Language:

Meteor 1-28 Rocket - Orbit

View from above orbital plane
View from above orbital plane
View from above satellite
View from above satellite

Ground track
Ground track

The orbit data is extracted from the following two-line orbital elements,

1 10114U 77057B   24176.88941956  .00006887  00000-0  25382-3 0  9995
2 10114  97.5110 321.2671 0010308   0.3325 359.7920 15.28093565572664
Epoch (UTC): 24 June 2024 21:20:45
Eccentricity: 0.0010308
inclination: 97.5110°
perigee height: 474 km
apogee height: 488 km
right ascension of ascending node: 321.2671°
argument of perigee: 0.3325°
revolutions per day: 15.28093565
mean anomaly at epoch: 359.7920°
orbit number at epoch: 57266

The dashed part of the orbit path shows where the satellite is in the earth's shadow,  

DLR